Temp
11 16 16 15 14 12 11 10 11 10 10 11 10 10 10 9 10 10 10 8 7 8 9 9 8 8 8 8 8 6 2 1 1 1 2 2 2 2 1 1 1 1 1 1 1 1 1 1 1 0 -0 -1 -2 -2 -3 -3 -3 -3 -3 -4 -4 -5 -5 -6 -6 -7 -8 -9 -9 -10 -10 -11 -11 -11 -11 -11 -10 -10 -11 -11 -10 -10 -9 -9 -9 -9
12 16 15 12 11 10 10 9 8 9 9 10 10 10 9 9 10 10 9 8 7 8 9 8 8 8 8 9 9 6 4 3 2 2 2 2 2 2 2 1 1 1 1 1 0 0 1 1 1 -0 -1 -1 -2 -2 -2 -3 -3 -3 -4 -4 -4 -5 -5 -6 -7 -7 -8 -9 -9 -10 -10 -11 -11 -11 -11 -11 -10 -10 -11 -11 -10 -10 -10 -10 -10 -9
15 16 13 11 9 8 9 8 8 9 9 10 9 10 11 9 10 10 8 7 7 8 8 8 7 8 8 8 8 6 5 5 3 3 3 3 3 2 2 2 1 1 1 1 -0 -0 0 0 0 -0 -1 -2 -2 -2 -2 -3 -3 -3 -4 -4 -4 -4 -5 -6 -7 -7 -8 -8 -9 -10 -10 -11 -11 -11 -11 -11 -11 -11 -11 -11 -11 -10 -10 -10 -10 -10
17 15 11 8 8 9 9 8 8 10 10 11 10 10 11 10 10 11 9 7 7 7 7 7 6 7 8 9 8 5 4 4 3 3 3 2 3 3 2 2 2 2 1 1 1 -1 -1 -1 -1 -1 -1 -2 -2 -2 -3 -3 -3 -3 -3 -4 -4 -4 -5 -6 -7 -7 -8 -9 -9 -10 -11 -11 -11 -11 -11 -11 -11 -11 -11 -11 -11 -11 -11 -10 -10 -10
16 11 7 7 8 10 10 10 10 11 11 11 10 10 11 10 10 10 9 7 7 7 6 6 8 10 10 12 12 6 2 3 3 3 3 2 2 2 2 2 2 2 2 2 2 0 -1 -2 -2 -1 -1 -1 -2 -2 -2 -2 -2 -3 -3 -3 -4 -4 -5 -6 -7 -7 -8 -9 -10 -10 -11 -11 -11 -11 -11 -12 -11 -11 -11 -11 -11 -11 -11 -11 -11 -11
14 8 6 9 10 9 11 12 10 11 11 11 10 10 10 10 9 8 7 6 8 9 7 7 12 15 12 12 14 8 5 7 4 3 5 4 2 2 2 2 2 2 2 1 1 1 -0 -1 -2 -2 -2 -2 -2 -2 -1 -2 -2 -2 -3 -3 -4 -5 -5 -6 -7 -8 -8 -9 -10 -10 -11 -11 -12 -12 -12 -11 -11 -12 -12 -12 -12 -12 -12 -12 -12 -12
11 7 7 10 11 11 12 12 10 9 11 12 11 9 9 8 7 7 7 7 10 11 8 6 11 14 12 13 12 7 7 10 7 5 5 4 3 3 3 3 3 2 2 1 1 0 -0 -1 -2 -2 -2 -2 -2 -1 -0 -1 -2 -3 -3 -4 -4 -5 -5 -6 -7 -8 -9 -9 -10 -10 -11 -11 -12 -12 -12 -11 -12 -12 -12 -12 -12 -12 -12 -12 -12 -12
10 9 9 10 11 12 12 12 10 9 11 12 9 7 8 7 7 7 7 7 8 8 7 7 9 10 11 13 9 5 9 12 11 11 9 7 5 4 3 3 3 3 3 2 2 1 -0 -1 -1 -2 -1 -1 -0 0 -0 -1 -2 -2 -3 -4 -4 -5 -5 -6 -7 -8 -9 -9 -10 -10 -11 -11 -12 -12 -12 -12 -12 -12 -12 -13 -12 -12 -12 -12 -13 -12
10 11 11 11 11 12 12 12 10 8 11 11 8 6 7 6 7 6 6 7 6 7 10 8 8 10 12 12 8 5 10 14 14 14 13 12 10 6 4 4 3 3 3 2 2 1 0 -0 -1 -1 -1 -0 0 1 -0 -1 -1 -2 -3 -4 -4 -5 -6 -6 -7 -8 -8 -9 -10 -10 -11 -11 -11 -12 -12 -12 -12 -12 -12 -13 -13 -13 -13 -13 -13 -13
9 10 9 11 12 12 11 10 9 9 11 9 7 7 6 5 5 5 6 7 6 9 12 8 7 10 12 13 12 10 12 14 14 13 13 12 11 8 5 4 3 3 2 2 1 1 1 0 0 -0 -1 -0 0 1 0 -0 -1 -2 -3 -4 -5 -5 -6 -6 -7 -8 -8 -9 -10 -10 -11 -11 -11 -12 -12 -12 -12 -13 -13 -13 -13 -13 -13 -13 -13 -13
8 7 7 9 10 10 10 8 7 8 9 8 8 8 7 6 5 5 5 6 8 12 11 7 6 9 11 13 13 13 13 13 13 13 12 11 10 9 7 5 4 3 2 2 1 0 0 0 0 -1 -1 -1 -0 -0 -1 -1 -2 -3 -3 -4 -5 -5 -6 -6 -7 -8 -8 -9 -10 -10 -11 -11 -12 -12 -12 -13 -13 -13 -13 -13 -13 -13 -13 -13 -13 -13
8 9 9 8 8 7 9 8 6 5 6 7 9 9 10 9 7 8 7 7 12 14 10 6 6 7 9 12 14 13 12 10 10 11 12 12 11 10 9 7 5 3 2 2 1 0 -1 -1 -1 -2 -2 -1 -1 -2 -2 -2 -2 -3 -4 -4 -5 -5 -6 -6 -7 -8 -8 -9 -10 -10 -11 -11 -11 -12 -12 -13 -13 -13 -13 -13 -13 -13 -13 -13 -13 -13
11 10 9 8 7 7 9 11 9 7 7 9 10 10 12 13 11 13 12 10 13 13 8 5 7 8 8 11 13 13 12 11 10 9 10 10 10 9 8 7 5 3 2 1 1 1 -0 -1 -1 -2 -2 -3 -3 -2 -2 -2 -3 -3 -4 -5 -5 -5 -5 -6 -7 -8 -8 -9 -9 -10 -11 -11 -12 -12 -12 -13 -13 -13 -13 -13 -13 -13 -13 -13 -13 -13
14 10 8 9 9 7 9 11 11 10 10 10 10 10 12 13 12 13 12 10 12 11 6 4 6 9 10 12 12 12 14 13 10 8 8 7 7 7 6 5 3 2 1 1 0 1 0 -1 -1 -1 -2 -2 -3 -3 -3 -3 -3 -3 -4 -5 -5 -5 -5 -6 -7 -8 -8 -9 -9 -10 -11 -11 -12 -12 -13 -13 -13 -13 -13 -13 -13 -13 -13 -13 -13 -13
15 15 11 10 10 8 8 9 10 10 9 8 7 8 11 11 12 13 11 11 11 9 6 4 7 10 13 14 13 11 11 9 8 6 4 4 3 3 3 2 1 1 1 1 0 0 0 -1 -1 -1 -1 -2 -2 -2 -3 -3 -3 -4 -5 -5 -5 -5 -6 -6 -7 -8 -8 -9 -9 -10 -11 -11 -12 -12 -13 -13 -13 -13 -13 -13 -13 -13 -13 -13 -13 -14
14 16 10 7 7 7 8 7 6 9 9 7 5 7 10 10 10 9 7 7 7 7 7 6 8 10 11 13 10 8 9 9 9 7 5 6 5 2 2 3 3 3 3 2 1 1 0 -0 -1 -1 -1 -1 -2 -2 -3 -3 -3 -4 -4 -5 -5 -5 -6 -7 -7 -8 -8 -9 -9 -10 -11 -11 -12 -13 -13 -13 -13 -13 -13 -13 -13 -13 -13 -14 -14 -14
15 15 9 6 7 6 6 6 5 8 10 8 7 9 8 6 8 9 6 4 3 7 9 7 9 9 9 13 11 9 12 13 13 12 9 9 7 4 5 5 5 5 4 4 3 2 1 0 -0 -1 -1 -1 -1 -2 -2 -3 -3 -3 -4 -4 -5 -6 -6 -7 -7 -8 -8 -9 -9 -10 -11 -12 -12 -13 -13 -13 -13 -13 -14 -14 -14 -14 -14 -14 -14 -14
13 14 9 6 9 6 4 5 6 6 7 8 9 9 6 5 7 8 8 7 5 7 9 8 9 9 9 13 14 12 14 14 14 14 11 10 8 7 8 7 7 6 5 5 4 2 1 0 0 0 -0 -1 -1 -1 -2 -2 -2 -2 -3 -4 -5 -5 -6 -7 -7 -8 -8 -9 -10 -10 -11 -12 -12 -13 -13 -13 -14 -14 -14 -14 -14 -14 -14 -14 -14 -14
10 14 11 5 7 7 4 6 8 6 5 7 8 7 7 8 9 7 8 9 7 7 9 8 8 8 8 12 14 14 14 14 13 12 11 11 10 9 9 8 8 7 6 5 4 3 2 1 1 1 0 -0 -1 -1 -1 -2 -2 -3 -3 -4 -5 -5 -6 -6 -6 -7 -8 -9 -10 -11 -11 -12 -12 -13 -13 -14 -14 -14 -14 -14 -14 -14 -14 -14 -15 -15
9 13 13 6 5 7 7 8 10 8 5 6 7 6 6 7 8 7 6 7 8 7 8 8 8 10 10 11 13 14 13 12 12 11 10 11 10 9 9 8 8 7 7 6 5 5 4 2 1 1 1 0 -0 -1 -2 -2 -3 -3 -4 -4 -5 -5 -6 -6 -7 -7 -8 -9 -10 -11 -12 -12 -13 -13 -13 -14 -14 -14 -14 -14 -15 -15 -15 -15 -15 -15
9 11 13 9 6 7 9 9 9 10 8 7 7 7 7 5 5 6 5 4 6 8 7 6 8 11 11 10 12 13 12 12 11 10 10 9 9 8 8 8 8 7 7 7 6 6 4 3 2 2 1 0 -0 -1 -2 -3 -3 -4 -4 -5 -5 -6 -6 -7 -7 -8 -8 -9 -10 -11 -12 -12 -13 -13 -13 -14 -14 -14 -14 -14 -15 -15 -15 -15 -15 -15
9 10 11 11 10 11 11 7 5 7 8 8 9 8 8 7 6 7 7 3 3 5 6 6 7 10 11 10 11 12 12 12 11 9 8 8 8 8 7 7 7 7 7 6 6 6 5 3 2 2 1 -0 -1 -2 -2 -3 -4 -4 -5 -5 -5 -6 -6 -7 -7 -8 -9 -9 -10 -11 -12 -12 -13 -13 -14 -14 -14 -14 -14 -15 -15 -15 -15 -15 -16 -16
8 8 9 11 11 10 8 4 3 4 5 6 7 6 6 7 8 10 9 6 3 3 3 2 5 8 10 11 11 11 10 10 9 8 7 7 7 8 8 8 8 7 7 6 6 5 4 3 2 1 0 -1 -1 -2 -2 -3 -4 -5 -5 -5 -6 -6 -7 -6 -7 -8 -9 -10 -10 -11 -12 -13 -13 -13 -14 -14 -14 -14 -15 -15 -15 -15 -15 -16 -16 -16
7 8 9 11 11 8 5 3 3 3 4 6 6 4 5 6 7 7 7 5 5 5 4 2 4 7 10 9 9 9 8 8 8 8 8 8 8 9 9 9 8 7 7 7 6 6 4 2 1 0 -0 -1 -2 -2 -3 -4 -4 -5 -5 -6 -6 -7 -6 -7 -7 -8 -9 -10 -11 -11 -12 -13 -13 -14 -14 -14 -14 -15 -15 -15 -15 -15 -16 -16 -16 -16
9 10 10 11 12 11 9 8 7 6 6 7 6 4 4 5 4 4 3 3 5 6 6 5 6 8 10 10 10 9 8 9 9 9 9 9 9 9 9 8 8 7 7 7 7 6 5 3 2 -0 -1 -1 -1 -2 -3 -4 -4 -5 -6 -6 -6 -7 -7 -7 -8 -8 -9 -10 -11 -12 -12 -13 -13 -14 -14 -14 -15 -15 -15 -15 -16 -16 -16 -16 -17 -16
9 9 9 11 13 12 13 13 12 10 8 6 6 4 3 4 4 6 5 5 6 5 4 6 8 9 11 10 10 10 9 9 9 9 9 9 8 8 7 7 7 7 7 7 6 6 6 5 3 1 0 -0 -1 -1 -2 -3 -4 -5 -6 -6 -6 -7 -7 -8 -8 -9 -10 -10 -11 -12 -13 -13 -14 -14 -14 -15 -15 -15 -15 -16 -16 -16 -16 -17 -17 -17
7 7 8 10 11 12 13 12 10 9 8 8 8 6 5 4 3 5 6 5 6 4 3 6 8 8 9 9 9 9 9 9 9 8 8 8 7 7 7 7 7 7 7 6 6 6 5 5 4 3 2 1 0 -1 -1 -3 -4 -5 -5 -6 -7 -7 -8 -8 -9 -10 -10 -11 -12 -12 -13 -13 -14 -14 -15 -15 -15 -16 -16 -16 -16 -17 -17 -17 -17 -17
8 8 7 8 9 9 10 10 7 7 7 8 8 7 6 4 2 4 5 6 6 5 5 7 7 6 7 8 9 9 8 8 8 7 7 7 7 7 7 7 7 6 6 6 5 5 5 5 5 4 3 2 1 0 -1 -2 -3 -4 -5 -5 -7 -8 -8 -9 -9 -10 -11 -11 -12 -13 -13 -13 -14 -14 -15 -15 -16 -16 -16 -16 -17 -17 -17 -17 -17 -17
8 8 6 5 7 7 7 7 7 6 6 6 6 6 6 4 3 4 5 5 5 6 7 8 7 6 7 8 8 8 8 7 7 7 7 7 7 7 7 6 6 6 5 5 5 4 4 4 4 4 3 3 2 1 -1 -2 -3 -4 -5 -6 -7 -8 -9 -9 -10 -10 -11 -12 -13 -13 -13 -14 -14 -15 -15 -16 -16 -16 -16 -17 -17 -17 -17 -17 -17 -18
7 8 5 3 6 7 6 6 5 4 5 6 6 6 5 4 3 3 4 5 4 5 6 6 6 5 6 7 7 7 7 6 6 6 6 7 7 6 6 6 5 5 4 4 4 4 3 3 3 3 3 2 2 1 0 -1 -2 -4 -5 -7 -8 -9 -9 -10 -10 -11 -11 -12 -13 -13 -13 -14 -14 -15 -15 -16 -16 -16 -17 -17 -17 -17 -17 -18 -18 -18
6 8 5 3 6 8 7 6 5 5 5 5 6 7 5 4 3 2 3 3 3 3 4 4 3 3 5 6 6 6 6 6 6 7 6 6 6 5 5 5 4 4 4 3 3 3 3 3 2 2 2 2 2 1 1 0 -1 -3 -5 -6 -8 -9 -10 -10 -10 -11 -12 -12 -12 -13 -14 -14 -15 -15 -16 -16 -16 -17 -17 -17 -17 -18 -18 -18 -18 -18
6 6 5 5 8 9 7 6 6 6 5 5 7 9 7 6 6 5 3 3 3 5 5 4 4 5 7 8 7 6 7 6 6 6 6 6 6 5 5 4 4 4 3 3 3 2 2 2 2 2 1 1 1 0 0 0 -1 -3 -4 -6 -7 -9 -10 -10 -11 -11 -12 -12 -13 -13 -14 -14 -15 -16 -16 -16 -17 -17 -17 -18 -18 -18 -18 -18 -19 -19
3 6 6 5 8 10 8 6 6 7 8 9 9 10 9 8 7 6 5 5 4 5 6 6 7 8 8 7 6 6 6 6 5 5 5 5 5 5 4 3 3 3 3 2 2 2 2 1 1 1 0 0 0 -0 -0 -1 -2 -3 -4 -5 -7 -9 -10 -10 -11 -12 -12 -13 -13 -14 -14 -15 -15 -16 -16 -16 -17 -17 -18 -18 -18 -18 -19 -19 -19 -20
1 5 5 4 7 10 8 6 7 10 12 12 10 9 10 9 8 8 8 8 6 5 6 7 7 7 6 6 6 6 5 5 5 5 5 5 5 4 4 3 3 3 2 2 2 1 1 1 1 0 -0 -0 -1 -1 -2 -2 -2 -3 -4 -5 -7 -9 -10 -11 -12 -12 -12 -13 -13 -14 -14 -15 -16 -16 -16 -17 -17 -17 -18 -18 -19 -19 -19 -19 -20 -20
3 4 4 3 5 7 6 7 10 13 12 10 9 8 8 7 7 7 7 8 8 7 6 6 6 6 6 6 6 5 5 5 5 4 4 5 4 4 3 3 3 2 2 2 1 1 1 0 0 -0 -1 -1 -1 -2 -3 -3 -3 -4 -5 -6 -8 -9 -10 -11 -12 -12 -13 -13 -14 -14 -15 -15 -16 -16 -17 -17 -17 -18 -18 -19 -19 -19 -20 -20 -20 -20
5 4 4 3 4 6 6 8 10 11 10 8 8 8 7 6 6 6 6 8 8 7 7 6 6 6 6 5 5 5 5 4 4 4 5 5 4 4 3 3 2 2 2 1 1 1 0 0 -0 -1 -1 -2 -2 -3 -3 -4 -4 -5 -6 -7 -8 -10 -10 -11 -12 -13 -13 -14 -14 -14 -15 -15 -16 -16 -17 -17 -18 -18 -19 -19 -19 -20 -20 -20 -21 -21
4 5 5 5 5 5 6 6 7 9 9 9 9 8 7 6 7 6 6 6 7 7 7 6 6 6 5 5 5 4 4 3 3 4 5 5 5 3 3 2 2 2 1 1 1 1 0 -0 -0 -1 -2 -2 -3 -4 -4 -4 -5 -6 -7 -8 -9 -10 -11 -12 -13 -13 -13 -14 -14 -14 -15 -15 -16 -17 -17 -17 -18 -18 -19 -19 -20 -20 -20 -21 -21 -21
3 4 6 6 5 4 4 6 6 8 9 10 9 7 5 5 5 5 4 5 6 7 6 6 5 5 5 4 4 4 3 2 2 4 5 5 4 3 2 2 2 2 1 1 1 0 0 -0 -1 -2 -2 -3 -3 -4 -4 -5 -6 -7 -8 -9 -10 -11 -12 -13 -13 -13 -13 -14 -13 -14 -15 -15 -16 -17 -17 -18 -18 -19 -19 -20 -20 -20 -21 -21 -21 -22
2 3 4 5 5 4 5 6 7 8 10 9 8 7 4 3 3 3 4 6 7 7 6 6 5 5 4 4 3 3 2 1 2 3 4 4 3 2 2 2 2 2 1 1 1 0 -0 -1 -1 -2 -2 -3 -3 -4 -4 -5 -6 -8 -9 -9 -10 -11 -12 -13 -12 -12 -13 -13 -13 -14 -15 -16 -16 -17 -17 -18 -18 -19 -19 -20 -20 -21 -21 -22 -22 -22
3 3 3 4 5 4 4 5 5 7 8 8 8 7 4 1 2 4 5 7 8 7 6 6 5 4 4 3 3 3 2 2 2 3 3 3 2 2 2 2 2 1 1 1 0 -0 -1 -1 -2 -2 -3 -3 -3 -4 -4 -5 -7 -8 -9 -9 -10 -12 -12 -11 -11 -12 -12 -12 -13 -15 -15 -16 -16 -17 -17 -18 -18 -19 -20 -20 -21 -21 -22 -22 -22 -22
2 2 1 2 3 3 3 4 5 6 8 8 7 6 3 1 4 5 6 7 7 6 6 5 4 4 4 3 3 3 3 3 3 3 3 2 2 2 2 2 1 1 1 0 -0 -1 -1 -2 -2 -2 -3 -3 -3 -4 -5 -6 -7 -9 -9 -10 -11 -12 -11 -10 -11 -12 -13 -13 -14 -15 -16 -16 -16 -17 -17 -18 -18 -19 -20 -20 -21 -22 -22 -22 -22 -22
4 2 1 1 3 2 2 3 4 6 7 6 6 6 4 4 5 6 6 7 7 6 5 5 4 4 4 3 3 3 3 3 3 2 2 2 2 2 2 1 1 1 0 -0 -0 -1 -1 -2 -2 -2 -3 -3 -3 -4 -5 -6 -8 -9 -9 -10 -11 -10 -10 -10 -12 -13 -13 -14 -15 -15 -16 -16 -17 -17 -18 -18 -19 -20 -20 -21 -22 -22 -22 -23 -22 -22
6 6 6 4 3 2 2 3 5 7 7 6 6 6 6 6 6 6 7 6 6 5 5 4 4 4 3 3 3 3 3 3 2 2 2 2 2 2 1 1 1 0 -0 -0 -1 -1 -2 -2 -2 -3 -3 -3 -3 -4 -5 -6 -8 -9 -9 -10 -10 -9 -10 -12 -12 -12 -13 -14 -15 -16 -16 -17 -17 -18 -18 -19 -19 -20 -21 -22 -22 -22 -22 -22 -22 -22
5 6 7 5 4 4 5 6 7 8 8 7 6 6 6 7 7 6 5 5 5 5 4 4 4 4 3 3 3 2 2 2 2 2 2 2 1 1 1 1 0 -0 -0 -1 -1 -1 -2 -2 -3 -3 -3 -3 -3 -4 -5 -6 -8 -9 -9 -9 -9 -9 -11 -12 -12 -13 -14 -15 -15 -16 -17 -17 -18 -18 -18 -19 -20 -21 -21 -22 -22 -22 -22 -22 -22 -22
6 6 7 6 5 6 6 7 7 7 7 6 6 6 6 6 6 5 5 4 4 4 4 3 3 3 3 3 2 2 2 2 2 2 1 1 1 1 0 0 0 -0 -1 -1 -1 -2 -2 -2 -3 -3 -3 -3 -3 -4 -5 -6 -7 -9 -9 -8 -8 -10 -11 -12 -13 -14 -15 -15 -16 -17 -17 -18 -18 -19 -19 -20 -20 -21 -22 -22 -22 -22 -22 -22 -22 -22
5 5 5 6 6 6 6 6 7 6 6 6 6 6 6 6 5 5 4 4 4 4 4 3 3 3 3 2 2 1 1 1 1 1 1 1 0 0 0 0 -0 -0 -1 -1 -2 -2 -2 -3 -3 -3 -3 -3 -3 -4 -5 -6 -7 -8 -8 -8 -8 -10 -11 -12 -14 -14 -15 -16 -17 -17 -18 -18 -19 -19 -20 -20 -20 -21 -22 -22 -22 -22 -22 -22 -22 -22
5 4 5 6 6 5 5 6 6 6 6 6 5 6 5 5 5 4 4 3 3 3 3 3 3 2 2 2 1 1 1 1 0 0 0 0 0 0 -0 -0 -0 -1 -1 -2 -2 -2 -2 -3 -3 -3 -3 -3 -3 -4 -5 -6 -6 -7 -8 -8 -9 -10 -11 -13 -14 -15 -16 -17 -17 -18 -18 -19 -19 -20 -20 -21 -21 -22 -22 -22 -22 -22 -22 -22 -22 -22
5 5 5 5 5 4 5 6 6 5 6 5 5 5 4 4 4 4 3 3 3 3 3 3 2 2 2 1 1 1 0 0 0 0 -0 -0 -0 -0 -0 -1 -1 -1 -2 -2 -2 -2 -3 -3 -3 -3 -3 -3 -4 -5 -5 -6 -6 -7 -8 -8 -9 -10 -12 -13 -14 -15 -16 -17 -17 -18 -18 -19 -20 -20 -21 -21 -21 -22 -22 -22 -22 -22 -22 -21 -21 -21
5 5 4 4 4 4 4 5 5 4 4 4 4 4 4 3 3 3 3 3 2 2 2 2 2 2 1 1 1 0 0 0 0 -0 -0 -0 -0 -0 -1 -1 -1 -2 -2 -2 -3 -3 -3 -3 -3 -3 -3 -4 -4 -5 -6 -6 -7 -7 -8 -8 -9 -11 -13 -14 -14 -15 -16 -17 -18 -18 -19 -19 -20 -20 -21 -21 -21 -21 -21 -21 -21 -21 -21 -20 -20 -19
4 4 4 3 2 3 3 4 3 2 2 3 3 3 3 3 3 2 2 2 2 2 2 1 1 1 1 1 1 0 0 0 0 0 -0 -0 -1 -1 -1 -1 -2 -2 -3 -3 -3 -3 -3 -4 -4 -4 -4 -4 -5 -5 -6 -7 -7 -7 -8 -9 -10 -11 -13 -14 -15 -16 -17 -17 -18 -18 -19 -20 -21 -21 -22 -22 -22 -22 -21 -21 -21 -21 -20 -20 -19 -19
4 4 4 3 2 2 3 3 3 2 2 2 3 3 3 3 2 2 2 2 1 1 1 1 1 1 1 1 1 0 0 0 0 -0 -0 -1 -1 -1 -2 -2 -3 -3 -3 -3 -4 -4 -4 -4 -4 -5 -5 -5 -5 -6 -7 -8 -8 -8 -9 -9 -10 -11 -13 -14 -15 -17 -17 -18 -18 -19 -20 -20 -21 -21 -22 -22 -22 -22 -21 -21 -21 -20 -20 -19 -18 -18
Height
862 855 858 862 866 872 874 877 877 878 880 878 880 882 882 883 878 872 872 877 881 876 867 867 866 856 849 847 847 854 864 866 865 864 862 860 860 860 860 857 855 854 848 847 850 849 849 849 848 849 849 849 849 849 849 849 848 847 846 845 845 844 844 843 843 842 841 839 838 836 835 834 833 832 831 830 829 829 828 827 826 825 824 824 823 823
861 856 864 870 873 878 878 882 885 884 884 882 882 882 883 885 877 869 874 878 881 877 867 867 868 854 845 843 842 851 858 857 859 860 857 856 857 856 856 854 851 849 847 847 847 845 846 846 845 846 846 846 846 845 845 845 844 844 843 842 841 841 841 840 840 839 838 837 836 835 834 832 831 830 829 828 828 827 827 826 825 824 823 822 822 821
859 858 867 875 881 884 883 887 887 883 883 881 882 881 875 878 876 868 875 882 882 878 868 870 871 852 841 842 842 849 852 849 853 855 853 853 854 853 851 850 849 847 845 844 843 842 842 842 842 842 842 841 841 842 842 841 841 840 839 839 838 838 838 837 837 836 835 834 834 833 832 831 829 828 828 827 826 825 825 825 824 823 822 821 820 820
856 861 874 882 884 881 881 888 885 879 878 875 878 879 871 874 875 865 871 880 880 879 873 874 876 857 842 839 840 849 852 850 853 852 852 853 850 848 847 847 847 844 842 840 838 839 838 838 839 838 837 837 838 838 837 837 837 836 835 835 834 834 834 834 834 833 833 832 832 831 830 829 827 826 826 825 824 824 823 823 823 821 820 819 818 818
858 871 883 885 882 878 877 880 880 874 872 875 878 877 871 871 875 871 875 882 878 879 880 876 861 842 836 829 827 846 856 851 854 852 849 850 848 846 846 844 842 840 837 836 834 834 835 835 834 833 832 833 833 832 831 832 832 831 831 831 831 831 831 831 831 831 831 830 829 829 828 827 826 824 824 823 823 822 821 820 820 819 818 817 816 816
864 880 885 878 876 879 874 871 877 875 871 872 873 874 872 871 879 881 883 885 872 864 875 876 846 821 829 827 821 842 851 842 849 851 843 842 844 844 843 839 836 835 833 832 831 829 831 830 829 829 829 829 827 826 826 827 828 827 827 827 827 828 828 828 828 828 828 828 827 827 826 825 824 823 822 821 821 820 819 818 817 817 816 815 814 813
872 883 884 876 873 875 871 870 878 880 873 867 869 875 878 879 884 885 886 884 867 858 872 881 856 831 829 824 827 848 846 833 838 842 839 839 839 838 837 833 831 831 829 828 827 826 826 825 825 825 822 822 820 820 822 823 823 823 823 824 824 824 825 825 825 826 825 825 825 824 824 823 822 821 819 819 819 818 817 816 814 814 814 814 813 812
874 877 878 876 873 871 868 868 876 882 872 863 873 881 880 883 883 882 886 884 878 874 875 879 870 857 841 826 840 857 839 823 823 823 826 830 831 832 831 829 827 825 824 823 823 821 821 820 820 818 816 816 815 816 819 819 819 819 819 820 820 821 821 822 823 823 822 822 822 822 821 821 820 819 817 816 816 815 815 814 812 811 811 811 811 810
874 870 870 872 870 868 867 868 875 881 871 866 879 885 882 884 883 886 888 885 892 881 862 872 876 862 843 828 843 854 831 816 814 812 814 815 819 825 826 824 823 820 819 819 818 816 815 814 813 812 812 812 812 813 814 814 815 815 816 816 817 817 818 819 819 819 819 819 819 819 818 817 817 816 815 814 813 813 812 811 810 809 809 809 809 808
874 874 874 871 868 867 869 873 878 877 871 872 880 882 884 889 887 891 889 883 891 871 850 871 879 860 840 822 827 836 823 814 813 812 814 814 816 821 822 821 819 817 816 815 814 811 809 808 808 808 809 809 809 810 810 810 811 811 812 813 813 813 814 815 816 815 816 816 816 815 814 813 813 813 813 811 810 810 809 808 807 806 806 806 807 807
878 881 881 875 871 872 874 879 883 880 876 876 877 875 879 886 889 892 895 890 875 851 853 880 884 869 850 825 818 821 816 814 814 814 814 813 815 815 816 817 815 814 813 811 810 808 805 805 805 806 806 805 805 806 806 806 807 807 808 809 808 809 810 810 812 812 812 812 812 811 810 810 809 809 809 808 807 807 806 805 804 803 803 803 804 804
878 875 876 878 878 879 876 876 884 887 886 879 875 872 865 869 878 876 880 881 852 834 862 888 884 879 862 829 814 815 818 823 822 818 813 810 810 810 810 810 811 811 810 809 807 805 804 803 803 803 801 801 802 802 801 801 802 803 803 804 804 804 806 806 807 808 808 808 807 807 807 806 806 806 806 805 804 804 803 801 801 801 800 800 801 802
868 872 877 878 878 881 873 868 875 882 882 873 869 870 854 850 858 848 852 864 848 843 875 890 878 873 861 831 815 813 813 817 820 820 816 812 811 809 807 807 808 809 808 807 805 802 802 800 798 798 796 796 797 795 796 796 797 798 798 799 800 799 801 802 802 803 803 803 803 803 803 802 802 802 802 801 801 800 799 798 798 797 797 797 797 798
857 869 879 874 872 880 875 867 864 868 873 869 870 872 856 855 857 846 854 866 854 854 882 899 885 863 845 824 815 814 808 809 816 819 818 817 815 810 809 810 809 809 806 804 803 800 798 796 793 793 792 791 791 790 791 792 792 793 793 794 794 794 796 797 798 799 798 799 799 799 800 799 799 799 798 798 797 797 796 795 795 794 794 794 794 795
857 854 866 870 870 876 876 874 871 870 875 877 886 883 865 864 862 853 859 860 856 865 883 894 876 845 824 808 808 813 812 815 818 819 822 820 818 817 814 813 810 806 803 800 800 797 793 791 789 788 788 786 786 786 787 787 788 789 789 789 790 790 792 793 793 794 794 795 796 796 797 796 796 796 795 795 794 794 793 792 792 791 791 791 791 792
865 851 868 879 879 880 876 881 884 876 874 883 893 884 869 871 871 876 890 890 890 889 880 878 861 840 828 810 811 819 813 814 813 814 820 814 813 819 814 810 806 801 799 796 795 793 788 786 785 784 783 782 782 782 782 782 783 783 784 784 785 785 787 789 789 790 791 791 792 793 793 793 793 793 793 792 791 791 790 789 789 789 789 789 789 789
861 854 875 883 879 885 883 883 887 877 870 881 884 874 879 890 880 881 899 913 918 892 865 865 850 838 834 810 806 815 804 801 802 801 807 805 807 814 809 804 802 797 795 792 791 789 784 782 781 779 778 777 777 777 776 776 776 777 778 779 781 782 783 785 785 787 788 789 789 789 789 790 790 790 789 789 788 788 788 787 787 787 786 786 786 786
867 856 873 884 874 882 891 885 886 886 880 879 876 875 887 894 886 884 885 893 908 886 859 860 849 842 842 812 797 805 797 795 796 794 800 801 802 805 800 798 797 793 792 789 787 785 782 780 777 774 773 771 771 771 770 770 771 772 773 774 776 777 778 780 781 783 784 785 786 785 786 786 786 786 786 785 785 785 785 784 784 784 784 784 784 783
878 858 865 889 882 880 891 883 876 887 889 880 878 884 884 875 874 885 882 873 884 883 863 860 859 853 844 817 796 796 795 794 795 797 799 797 796 797 794 794 792 790 788 786 784 782 778 776 772 770 769 767 766 766 765 766 767 767 768 769 770 771 772 775 776 778 779 781 782 782 782 782 782 783 782 782 782 781 781 781 781 781 781 781 781 781
883 864 858 882 890 883 883 877 868 876 889 887 884 888 888 882 879 886 891 883 879 880 872 865 855 835 821 814 800 793 795 795 794 797 798 795 795 795 794 791 788 787 785 782 780 777 774 772 768 767 765 763 763 762 762 762 762 762 762 762 764 765 767 769 771 772 774 776 777 778 778 779 779 779 779 778 778 778 777 777 778 778 778 778 778 778
883 873 859 871 888 881 869 870 867 866 876 882 881 883 885 893 897 891 896 900 887 877 881 879 854 818 804 810 803 795 796 795 795 798 798 798 798 795 794 791 787 785 782 779 777 773 771 768 765 764 762 761 760 759 759 758 757 757 756 756 757 759 761 762 764 766 768 770 772 773 774 774 775 775 775 775 774 774 774 774 775 775 775 775 775 775
879 878 869 866 869 862 859 876 882 874 873 872 868 873 875 881 889 880 881 902 904 889 885 885 860 817 799 805 801 797 798 796 799 802 800 801 799 795 793 790 787 784 781 778 774 771 768 765 762 761 759 758 757 756 754 753 753 752 750 750 751 752 754 755 758 760 762 765 766 767 769 770 771 771 771 771 770 770 771 771 771 771 772 772 772 772
884 884 880 868 861 862 871 885 889 883 883 880 874 878 881 877 875 865 863 884 902 901 901 908 883 825 796 802 802 798 803 803 804 805 803 801 797 793 790 786 784 783 779 776 772 769 767 763 761 759 757 756 754 752 750 749 749 747 745 746 746 747 748 749 753 755 757 760 761 763 764 765 766 767 767 767 766 767 767 767 768 768 768 768 768 769
885 882 878 865 860 870 882 888 892 890 886 878 877 886 886 878 875 873 875 883 887 885 892 907 886 826 797 807 807 804 810 809 806 805 801 796 792 788 786 783 782 779 775 773 769 766 764 761 759 757 754 753 750 748 747 745 745 743 742 743 742 741 743 745 748 751 753 756 757 759 761 761 762 763 763 763 763 763 764 764 765 765 765 765 765 765
876 874 874 864 853 856 862 866 871 878 880 874 875 886 886 883 889 889 893 896 883 869 873 880 858 817 800 806 803 803 808 804 800 800 796 795 792 787 785 782 780 777 772 770 766 763 761 759 757 755 752 750 747 744 743 742 741 740 739 738 737 738 740 742 745 747 750 752 754 756 757 757 758 758 759 759 759 760 761 761 761 761 762 762 762 762
876 877 875 864 854 852 847 844 846 855 869 874 875 883 885 886 887 878 881 888 877 872 878 865 832 804 799 804 802 803 805 800 797 795 793 794 793 789 787 782 778 776 771 768 765 761 759 757 754 752 749 746 743 741 739 738 736 736 734 733 733 734 736 738 740 743 746 748 750 751 752 753 754 754 754 755 756 757 757 758 758 758 758 759 759 759
884 886 880 867 859 854 844 845 857 863 865 864 864 873 879 885 887 880 880 878 869 875 876 853 831 818 810 809 807 803 801 799 797 794 792 792 790 787 785 780 777 775 771 768 766 762 759 755 752 750 746 743 740 737 735 734 732 731 729 728 728 730 732 734 737 739 741 743 744 746 747 748 749 750 751 751 752 753 754 755 755 754 755 755 756 756
882 879 881 877 868 861 856 857 867 873 867 861 862 865 871 883 890 884 875 865 862 869 858 838 838 837 820 809 806 803 802 801 798 796 793 792 789 785 781 778 775 772 769 768 765 762 759 755 751 748 744 740 737 734 732 730 728 726 724 724 725 727 729 731 733 734 736 738 740 741 742 744 745 746 747 748 749 750 751 752 752 751 751 752 752 753
882 875 882 886 874 868 872 869 869 875 872 868 867 866 868 880 886 877 866 862 864 861 843 828 834 836 822 811 808 807 807 805 802 799 795 793 789 784 779 776 773 770 769 767 764 762 759 755 751 747 742 739 735 732 729 726 724 723 721 721 723 724 725 727 729 730 732 734 735 736 738 740 742 743 744 745 745 746 747 748 749 748 748 749 749 750
883 875 886 895 880 867 870 871 872 876 872 867 867 866 867 873 878 875 867 865 867 861 846 838 838 836 826 817 814 811 810 809 806 799 794 791 788 784 780 776 773 771 769 767 764 762 758 755 752 746 742 738 734 731 727 723 721 719 718 719 720 721 721 723 725 726 727 729 730 732 735 737 738 740 741 742 742 743 744 745 746 746 745 746 746 747
884 876 888 895 877 859 862 870 871 872 870 867 861 859 864 869 873 878 875 870 871 864 854 852 851 842 826 817 816 813 810 809 805 798 793 788 785 784 781 776 774 771 769 767 764 761 758 754 750 746 742 737 733 730 726 721 718 716 715 715 716 717 718 720 721 722 722 724 726 729 731 732 734 736 737 738 739 739 740 741 742 742 742 743 743 743
886 882 888 890 870 852 859 868 865 865 870 869 856 846 853 859 858 863 867 866 862 852 846 851 848 830 813 809 811 809 807 807 804 799 796 790 784 782 780 778 776 772 770 767 764 760 757 752 748 744 740 736 732 728 724 719 716 712 711 710 711 713 715 716 717 717 718 721 723 725 727 729 730 732 733 734 735 736 736 737 738 739 739 739 739 740
894 883 881 887 869 849 856 868 864 856 847 844 844 839 840 846 848 850 853 853 851 847 842 838 827 813 809 811 810 805 802 803 802 799 797 791 785 780 778 778 777 773 771 768 764 761 757 752 748 744 740 737 732 728 723 719 715 710 707 706 707 708 710 711 712 712 714 717 718 721 724 725 727 728 729 730 732 732 733 734 734 735 736 736 736 736
901 887 885 893 873 850 858 866 855 838 824 824 836 839 836 838 840 841 839 835 836 840 837 829 821 817 817 816 812 807 803 802 801 798 796 791 785 781 780 778 776 773 771 767 764 761 757 752 748 743 740 736 732 727 722 718 713 709 706 705 704 704 705 706 707 708 710 712 714 717 719 722 723 724 725 726 727 729 730 730 730 731 732 732 733 733
895 889 892 898 885 868 868 862 838 821 822 832 839 840 841 843 842 841 837 830 828 830 830 828 825 822 819 816 814 811 805 800 799 797 794 788 784 784 783 779 776 773 769 765 762 758 754 750 746 741 737 733 729 725 720 715 712 709 705 703 702 701 701 702 703 705 707 708 710 713 715 717 719 720 721 723 723 725 726 726 727 727 728 729 729 729
887 888 891 895 890 877 871 864 843 826 831 840 840 840 845 846 844 843 838 829 824 824 826 827 825 821 818 816 812 808 804 799 795 794 790 785 783 784 783 780 777 773 768 765 761 757 753 750 746 742 738 733 729 724 719 715 711 707 704 702 701 700 700 700 702 703 704 705 706 708 710 713 715 717 718 720 720 721 722 722 723 724 725 725 725 725
886 886 884 884 886 883 879 875 860 843 838 838 837 841 846 844 842 844 841 830 823 823 826 826 823 820 817 813 809 807 804 797 790 786 785 784 784 785 783 780 777 773 769 765 761 757 754 750 747 744 739 734 729 724 719 714 710 706 703 701 700 700 699 699 700 699 700 701 702 704 707 709 712 714 715 716 717 717 718 719 720 721 721 722 722 722
890 885 880 877 883 890 886 877 866 851 836 832 837 845 851 849 847 850 850 837 824 823 826 825 822 819 814 811 809 805 803 799 789 780 780 781 782 781 778 775 772 769 766 762 757 754 750 747 744 741 736 731 726 722 718 713 709 705 702 699 698 697 697 697 697 696 696 697 699 701 704 706 709 711 712 713 713 714 715 716 717 718 719 719 719 719
891 891 888 883 884 890 884 874 868 855 836 834 843 846 851 855 853 852 849 834 821 822 825 822 821 819 814 812 809 806 807 804 791 779 776 777 776 774 772 768 765 762 759 756 754 751 747 744 741 737 733 728 723 719 716 711 707 704 701 698 696 695 695 694 692 691 693 694 696 699 701 703 705 707 709 710 711 711 712 713 714 715 716 716 716 715
890 890 891 887 885 890 889 880 875 862 844 841 845 846 853 859 855 850 843 825 816 819 821 820 821 819 815 813 810 808 809 805 793 782 778 777 775 771 769 766 762 760 757 755 753 750 746 743 739 734 730 726 720 716 713 708 705 702 699 696 694 694 692 688 686 688 691 693 695 697 698 700 702 703 705 707 708 709 710 711 712 713 713 713 713 713
897 898 901 899 891 893 895 886 876 863 850 847 848 849 856 856 850 847 841 827 819 820 819 819 820 817 814 812 809 807 805 800 793 785 780 778 775 770 768 766 762 760 758 755 752 749 745 741 737 732 728 723 719 714 710 706 702 699 696 694 693 691 687 683 684 688 690 691 693 694 695 697 699 700 701 703 705 707 708 709 710 710 710 710 710 710
888 896 901 901 895 897 902 894 878 862 851 850 851 850 852 853 850 845 836 827 825 824 821 819 818 815 813 811 807 804 798 793 789 784 779 777 773 769 766 764 760 757 755 752 749 746 742 738 733 728 723 719 715 711 706 703 699 695 693 692 690 686 683 683 685 686 687 688 689 690 692 694 696 698 699 700 702 704 705 706 707 708 708 708 708 708
874 874 876 885 891 897 898 889 874 858 850 851 851 849 850 852 849 841 831 827 828 827 823 820 816 814 812 808 804 800 794 790 786 781 777 774 771 768 765 761 758 754 750 747 744 741 738 733 728 723 718 714 710 706 702 699 695 691 690 689 685 681 681 682 682 682 683 685 685 687 689 691 693 695 696 697 699 700 702 704 704 705 706 706 706 706
877 872 870 880 886 884 880 871 861 853 850 852 854 852 850 847 845 841 836 832 828 825 823 819 814 811 809 806 802 797 792 788 784 779 776 773 769 766 762 758 755 751 747 744 740 737 735 730 724 719 713 709 705 701 698 695 691 689 687 684 681 679 679 679 678 679 680 681 682 684 686 688 690 691 693 694 696 697 699 700 702 703 703 704 704 704
877 876 875 878 878 875 871 865 858 855 854 854 855 853 849 844 843 842 840 836 831 827 824 820 813 810 808 805 801 796 791 787 783 779 775 770 766 763 759 755 752 747 744 740 736 733 731 726 720 715 708 704 701 697 693 691 689 686 683 680 677 676 675 675 675 676 676 677 679 681 683 685 687 688 690 692 692 694 696 697 699 700 701 702 702 702
880 881 879 877 874 873 869 861 858 858 855 852 852 851 849 846 844 842 839 836 831 827 824 821 816 811 808 805 801 797 792 787 782 778 774 769 764 760 756 751 748 744 740 735 732 730 726 721 716 710 703 698 694 692 690 688 686 683 680 676 675 673 672 671 672 672 673 674 676 678 680 682 684 686 688 689 690 691 693 694 696 697 698 699 700 700
880 880 879 876 875 877 869 858 857 859 855 852 850 848 847 846 844 842 840 835 831 827 824 821 817 812 808 804 800 796 791 787 782 777 772 767 761 756 752 749 745 740 736 733 729 726 722 716 711 705 698 692 689 687 686 685 683 681 677 674 672 670 668 668 669 669 670 671 673 675 677 679 681 683 685 687 688 689 690 692 694 695 696 696 697 698
881 879 879 878 879 879 869 858 857 858 855 855 853 848 846 844 840 839 839 834 831 827 823 819 816 812 807 803 799 794 790 786 781 775 770 765 760 754 750 746 741 737 734 731 728 723 718 713 707 701 695 689 686 685 684 682 680 678 675 671 669 667 665 665 665 665 666 667 669 671 673 675 678 680 682 684 685 686 687 689 690 691 692 693 694 695
883 882 882 882 880 875 867 861 859 855 851 852 853 852 849 845 840 837 835 831 828 824 820 817 814 810 806 801 797 793 788 783 779 774 768 763 757 752 748 744 740 737 734 730 726 722 716 710 705 698 692 687 685 683 681 679 677 675 672 669 666 664 663 662 661 662 663 664 666 669 671 673 675 677 679 681 682 683 685 686 688 689 690 691 692 693
886 884 884 884 882 877 871 867 866 862 854 850 850 850 847 843 839 835 831 829 826 822 818 814 810 806 804 800 795 791 786 780 775 770 764 759 754 750 747 743 739 736 733 729 724 719 714 709 703 696 690 687 685 681 679 677 674 671 669 666 663 661 660 659 659 660 661 662 664 666 668 671 673 675 676 678 679 681 682 684 686 687 688 689 690 691
887 887 886 887 886 880 873 870 870 869 862 854 850 848 845 841 837 833 829 827 823 819 816 812 807 803 800 797 794 791 785 779 773 767 762 758 754 751 747 744 740 735 731 727 722 717 712 707 701 696 690 686 682 679 677 675 671 668 667 664 661 658 657 656 656 657 658 659 661 662 665 668 670 672 674 676 677 679 680 682 684 686 687 688 689 689
Wind_Speed
3 5 3 2 4 4 4 3 3 3 4 4 3 3 4 5 5 5 4 4 1 1 7 7 9 16 16 14 10 6 7 10 12 10 10 10 9 9 10 11 13 13 16 19 20 24 25 25 25 22 22 22 22 23 22 22 22 20 18 18 18 18 17 18 18 17 17 17 17 16 14 14 16 15 12 8 6 5 7 9 11 11 11 11 12 12
5 5 1 5 6 5 4 4 4 4 3 3 3 3 3 4 6 6 3 3 1 0 6 3 8 18 17 14 10 4 7 10 12 12 13 12 11 9 10 14 13 12 13 14 18 23 25 26 25 23 23 24 25 25 25 24 23 21 20 20 19 18 18 17 17 16 16 16 15 15 14 15 16 14 11 10 7 7 9 10 11 13 13 13 13 13
5 2 5 5 4 4 4 4 4 2 3 2 1 1 3 3 4 6 2 2 2 1 5 5 7 17 17 13 9 5 8 8 8 10 11 10 10 10 11 13 12 11 12 12 15 20 24 27 26 25 26 27 28 27 26 25 23 22 22 21 19 19 19 18 17 16 16 15 14 14 14 14 15 13 11 11 10 10 12 13 13 14 15 14 14 13
2 3 5 3 6 6 3 3 3 2 2 1 1 1 4 4 2 4 3 3 3 3 5 6 7 13 12 8 6 3 5 5 4 7 9 8 10 12 11 10 10 13 14 13 13 16 22 25 26 28 29 29 29 29 29 27 25 24 23 21 20 20 20 18 17 17 16 15 14 14 13 13 13 12 11 11 11 11 14 16 16 16 15 15 13 11
0 2 2 5 4 4 2 2 4 3 4 3 4 3 4 3 2 5 5 6 5 2 2 5 6 7 6 5 5 3 2 5 4 6 9 9 11 11 10 11 12 13 14 14 13 14 18 23 27 30 31 30 30 32 32 29 27 26 23 22 20 20 20 19 18 17 15 14 14 14 14 14 12 12 12 12 12 11 13 14 14 14 13 12 10 9
0 1 2 3 4 3 2 0 1 2 4 4 3 6 6 3 3 5 6 7 5 3 1 3 4 5 4 4 6 4 5 6 4 6 11 11 9 9 10 13 13 13 13 13 14 15 17 23 27 29 30 31 33 35 33 30 28 25 23 22 21 21 21 20 19 17 16 15 15 14 14 14 13 13 14 13 13 13 14 14 13 12 11 8 8 9
1 1 2 3 3 4 3 1 3 4 4 4 3 6 5 1 4 5 4 2 2 3 2 3 1 4 5 4 5 5 7 10 6 7 11 11 9 9 10 12 12 12 12 12 14 16 17 21 24 27 31 34 35 35 32 29 28 26 24 23 23 23 22 21 19 17 17 17 17 16 16 16 15 16 16 15 15 15 14 13 12 12 10 7 8 11
2 2 3 3 5 3 2 1 4 5 4 4 3 4 1 4 5 4 1 2 2 3 3 3 2 2 5 5 4 4 7 10 8 8 10 9 10 10 11 12 12 13 12 10 12 13 17 22 25 28 33 35 36 34 30 29 28 26 25 24 24 23 23 22 21 19 18 18 18 18 17 18 17 18 18 17 15 14 13 13 13 12 10 8 10 12
2 2 3 3 3 1 2 2 5 6 1 5 4 2 3 3 2 2 4 3 1 2 4 4 2 0 6 6 3 3 4 8 9 9 9 9 9 10 10 12 12 13 12 11 11 13 18 24 28 32 33 34 34 32 30 30 28 26 26 25 25 24 24 23 22 21 20 20 20 20 19 20 20 20 19 17 15 15 15 15 14 12 10 10 11 12
1 2 4 5 3 3 4 3 5 6 3 5 2 1 1 3 2 3 4 3 2 3 3 4 2 1 5 6 4 2 2 6 8 8 8 9 9 9 10 11 12 11 10 10 12 16 21 25 29 31 30 32 33 31 30 29 27 27 26 26 27 27 25 25 23 23 22 22 21 21 21 22 22 21 20 18 18 18 17 15 14 12 11 11 12 12
2 2 2 2 2 3 3 2 3 5 4 5 5 3 3 4 3 3 2 3 3 2 5 5 2 2 2 6 4 2 2 4 5 7 9 9 10 9 9 9 10 9 9 9 10 16 23 26 26 26 28 32 33 31 30 29 29 28 28 28 28 28 27 26 25 24 24 24 24 24 24 23 23 22 21 20 20 19 16 15 15 14 12 12 12 12
4 2 1 1 1 1 2 1 0 1 2 3 3 2 3 3 3 3 4 4 3 4 5 4 3 2 2 6 5 5 6 5 6 7 11 12 11 11 9 9 9 8 8 9 8 12 16 19 21 23 27 31 30 29 30 31 30 29 29 29 30 30 29 27 27 27 27 26 26 26 25 25 24 23 23 23 22 20 17 16 16 14 13 13 13 13
3 2 2 3 1 1 2 2 3 3 3 4 3 4 4 4 4 3 3 2 1 4 3 1 3 1 5 9 9 10 11 9 8 8 10 11 12 12 11 10 8 7 8 8 9 10 10 12 17 22 26 29 29 31 33 32 31 31 31 31 31 32 31 29 29 29 29 28 27 27 26 26 25 24 24 24 24 22 20 18 16 15 14 13 13 13
4 3 2 1 1 0 3 1 2 2 3 4 2 3 3 2 3 3 3 2 3 4 2 1 2 2 5 7 9 11 12 9 8 8 9 10 12 13 12 10 9 9 9 9 9 9 9 12 18 22 25 28 30 33 33 33 32 32 31 31 32 33 32 30 30 30 30 30 28 27 27 27 26 25 25 25 24 23 22 20 17 16 16 16 15 15
1 4 1 1 1 1 2 2 2 1 2 1 2 3 2 3 2 3 3 1 3 5 4 2 1 3 3 5 7 8 9 8 7 8 8 9 11 11 10 11 11 12 11 9 9 10 12 17 21 23 24 27 30 32 32 32 32 32 32 33 33 34 33 32 32 32 31 30 28 27 27 27 27 26 26 25 25 24 23 22 19 18 18 18 18 17
1 5 3 1 2 1 1 1 2 4 2 0 2 3 1 3 3 1 3 3 1 3 4 2 3 5 4 8 9 5 6 7 7 7 7 9 10 7 8 11 10 11 10 9 9 11 15 20 23 23 25 28 29 30 31 32 33 33 33 33 34 35 34 33 33 33 32 30 28 27 28 28 28 27 25 24 23 21 21 21 20 20 20 20 19 17
1 5 3 3 2 3 0 2 2 2 0 1 1 1 2 3 5 4 1 1 3 1 4 2 3 5 4 8 9 6 6 7 7 7 7 9 9 6 8 10 10 10 11 10 10 11 14 18 21 24 27 28 29 30 32 34 35 34 34 33 34 34 33 33 33 32 31 29 28 28 28 28 28 28 26 24 23 22 21 21 21 21 21 21 19 18
1 4 4 1 0 1 0 2 3 3 2 2 1 3 1 2 3 4 0 3 4 1 4 1 4 5 2 3 6 7 7 9 9 9 9 9 9 8 9 10 11 12 11 11 11 11 14 17 21 25 28 30 32 33 34 35 35 34 34 34 34 34 34 34 33 32 31 30 29 29 29 28 28 28 27 26 25 25 25 25 24 23 22 21 19 19
2 2 5 1 1 3 3 2 2 3 2 2 2 2 2 1 1 1 1 1 2 2 5 4 5 4 3 4 5 6 8 10 11 9 9 10 10 9 10 11 12 12 11 11 11 11 12 16 22 26 28 31 32 33 35 34 33 33 34 35 35 35 35 34 33 32 31 30 30 29 29 28 28 27 26 25 24 24 25 25 24 23 23 22 21 21
2 1 4 2 1 3 3 1 2 1 3 3 1 1 2 2 3 1 1 2 1 2 3 5 5 3 6 6 5 7 11 11 11 9 8 10 11 10 10 11 12 12 11 10 11 11 11 16 23 26 27 30 31 32 33 32 32 34 34 35 35 36 35 33 32 32 31 30 30 29 29 28 27 27 26 25 24 24 25 25 23 23 23 23 22 21
2 2 4 4 3 2 1 2 4 4 3 2 1 1 1 1 2 0 0 2 3 2 2 2 4 7 7 4 6 9 11 10 10 9 8 10 11 12 12 12 13 12 12 12 12 12 12 16 23 26 27 28 28 29 30 31 33 34 34 35 37 36 35 34 34 33 32 31 29 29 29 28 27 26 26 25 25 25 25 24 24 24 24 23 23 21
1 3 3 3 3 2 3 3 3 5 5 4 4 4 3 3 3 1 3 1 2 2 4 3 5 11 6 4 6 9 9 9 9 9 10 11 13 14 13 12 13 12 13 13 13 13 13 16 21 24 24 25 25 27 30 32 33 34 36 37 37 37 37 36 35 34 33 32 30 30 29 27 26 25 25 25 25 26 26 25 25 25 24 24 23 22
2 3 1 4 5 4 3 2 1 2 3 4 2 2 3 4 5 4 3 3 1 1 2 3 2 9 4 3 5 7 6 7 9 9 11 12 12 12 13 13 13 12 13 13 13 12 13 17 22 22 22 23 24 27 30 32 34 37 38 38 37 37 38 37 36 35 33 32 31 30 29 27 26 25 25 25 26 26 26 26 26 25 25 25 24 23
1 3 0 4 5 3 2 2 1 1 3 2 1 2 4 2 3 5 5 3 2 3 2 2 4 9 5 1 4 5 5 7 9 10 11 12 12 13 14 15 15 14 14 14 13 12 13 17 19 18 20 22 23 26 28 30 33 36 38 38 38 38 38 38 36 34 32 31 30 30 29 28 26 24 25 26 26 27 27 27 27 26 25 25 24 22
1 1 1 3 6 6 5 4 4 3 0 2 3 1 2 3 6 3 2 2 1 5 6 4 7 9 4 4 5 7 9 11 12 11 10 11 13 14 15 16 15 15 16 16 15 14 14 14 13 14 18 21 23 26 27 29 31 33 35 38 40 38 36 36 36 34 32 30 30 29 29 29 26 25 26 26 27 27 27 27 27 26 25 23 23 22
2 2 2 0 3 5 5 5 4 2 1 2 1 2 3 4 6 3 1 2 3 4 6 5 8 10 7 8 11 12 12 14 15 15 13 11 12 14 15 15 15 15 16 17 17 16 15 14 12 14 19 22 24 26 26 28 31 33 34 37 39 39 36 35 34 33 32 31 30 30 30 29 27 26 27 27 27 26 26 26 26 25 24 23 22 22
2 1 3 5 7 7 7 7 1 2 2 5 5 4 5 5 5 4 3 3 5 2 3 7 11 15 16 15 15 15 15 15 16 16 16 14 14 15 15 14 15 15 15 15 15 15 17 17 15 17 20 23 25 26 27 28 30 32 35 37 37 37 36 35 33 33 32 32 31 30 30 30 28 27 27 26 26 25 24 23 23 23 23 22 22 21
4 2 4 6 9 11 10 9 3 1 6 10 8 6 6 6 5 7 7 7 4 1 6 9 9 12 18 18 18 17 17 17 17 17 16 15 16 17 16 17 19 17 15 14 15 17 18 19 18 18 22 25 26 26 27 28 29 32 36 38 36 35 35 34 33 33 32 32 31 31 31 29 28 27 25 25 24 22 21 20 20 21 22 21 22 22
4 3 4 3 7 11 10 12 9 5 7 7 7 8 7 7 9 11 15 9 6 4 12 12 10 14 17 19 20 18 17 16 16 16 15 14 17 18 19 20 20 17 16 17 18 19 18 19 19 19 23 27 27 26 27 27 28 29 32 34 34 34 35 34 33 33 32 31 31 31 30 28 26 25 24 23 21 20 19 18 18 20 21 21 22 22
4 3 3 2 6 11 9 9 7 5 5 5 6 9 8 9 12 13 14 9 6 11 17 18 20 20 17 18 19 17 15 12 12 14 16 17 18 19 20 21 18 16 17 18 19 19 18 18 19 20 23 27 28 28 28 27 27 27 28 30 31 33 34 34 33 33 32 32 32 31 28 26 25 24 23 23 21 19 18 18 19 20 21 21 21 21
1 3 1 3 4 10 5 3 2 4 5 6 8 9 6 7 8 9 9 8 6 10 15 16 17 17 14 13 13 12 10 9 12 17 19 19 19 19 20 19 16 17 19 20 19 18 18 18 19 19 21 25 30 32 30 29 28 26 27 28 29 31 33 33 34 34 33 32 31 29 27 25 24 24 24 23 22 21 20 19 20 21 21 20 21 21
1 2 2 5 4 7 2 5 7 6 4 4 8 9 4 5 5 5 5 6 7 8 11 10 9 10 10 8 9 10 10 11 15 17 17 17 20 21 18 14 15 18 20 20 19 19 19 20 19 19 22 27 33 33 33 34 30 25 26 28 29 30 31 33 34 34 34 32 30 28 26 25 24 24 23 22 22 21 21 20 20 21 21 21 21 21
3 2 1 3 2 6 4 6 9 8 4 1 4 5 4 4 3 4 4 6 9 7 6 6 8 10 11 12 14 16 17 16 15 14 14 17 21 20 16 13 15 19 19 18 18 19 19 19 20 23 26 30 33 34 36 37 32 28 28 28 28 30 32 34 35 34 33 31 30 28 26 25 24 24 24 23 22 21 21 20 20 21 21 21 20 21
3 4 1 1 1 5 8 9 8 7 4 3 4 4 5 4 4 4 6 11 9 7 5 7 9 12 13 12 15 18 19 17 15 14 14 16 17 15 13 15 18 19 18 17 18 18 17 18 22 27 31 32 34 36 39 39 35 31 28 25 27 30 33 34 34 33 32 30 29 29 27 26 26 25 24 23 22 22 21 21 21 21 21 20 20 20
4 4 1 1 1 4 6 8 6 4 5 7 5 4 5 5 6 8 9 13 13 7 6 8 10 11 12 13 14 16 17 17 16 14 15 17 13 8 11 16 19 18 17 17 18 18 19 22 26 29 33 36 38 39 40 40 36 31 25 23 26 30 33 35 33 32 31 30 29 28 28 28 27 26 25 24 23 22 22 22 21 21 20 20 20 20
6 4 2 1 1 2 3 4 2 6 6 3 2 3 3 1 2 6 8 11 12 10 6 7 10 12 14 15 14 14 16 18 15 11 12 14 8 7 12 16 17 17 17 17 18 19 22 26 28 30 34 37 39 39 39 40 36 28 23 22 25 29 32 33 32 30 30 30 29 29 29 28 28 27 26 24 22 22 22 22 21 20 19 19 19 20
6 5 1 1 1 1 0 1 4 6 8 4 2 2 3 2 3 5 6 10 12 8 4 7 13 15 15 16 15 14 15 16 14 9 7 8 6 10 15 16 15 16 18 19 22 25 28 30 30 32 34 35 37 37 37 38 34 26 22 21 23 27 29 30 31 31 31 30 31 30 29 28 27 26 25 24 23 23 22 22 21 20 19 18 19 19
3 2 3 2 1 2 1 3 4 5 4 4 3 3 3 3 2 3 1 8 8 4 3 9 15 17 17 17 17 16 14 14 15 11 8 8 12 15 16 16 18 20 21 24 27 30 32 33 33 35 35 34 35 36 37 37 32 25 22 21 23 26 28 29 32 33 32 31 31 30 28 28 26 25 25 24 24 24 22 21 20 19 18 17 18 18
5 2 4 3 1 2 3 1 2 2 4 5 5 6 4 2 2 3 1 5 5 4 7 12 15 16 16 16 16 13 12 12 13 13 14 18 19 19 17 17 21 26 29 31 32 32 35 36 36 37 36 33 34 36 37 35 29 23 21 22 24 26 28 31 36 36 34 32 31 29 28 27 26 25 24 24 24 23 21 20 19 18 17 16 17 18
5 4 3 2 2 1 3 2 3 4 6 6 7 7 4 2 3 3 7 7 7 11 13 12 14 15 15 15 14 11 10 11 13 15 18 20 20 21 21 20 22 26 30 32 34 34 36 36 36 35 34 32 33 35 36 33 26 21 22 24 23 23 29 37 40 36 32 30 29 27 27 27 26 25 24 23 23 22 20 19 18 17 17 16 17 17
2 2 1 2 2 2 3 2 3 4 5 6 7 5 2 1 2 5 9 10 13 17 16 13 15 15 14 14 12 10 10 12 14 17 19 19 19 20 23 26 28 28 28 30 33 33 32 34 35 35 33 33 33 33 34 31 24 21 24 23 20 24 34 40 36 30 28 28 27 26 27 26 25 25 24 23 22 20 19 18 17 17 16 16 15 15
1 1 1 1 2 1 2 2 3 5 4 3 5 4 1 3 5 7 10 12 13 15 15 15 16 15 14 14 13 12 14 16 18 20 20 19 19 18 21 25 27 26 27 30 32 31 30 32 35 35 34 34 33 32 31 27 22 23 23 20 23 31 37 34 28 26 28 28 27 27 27 26 25 24 22 21 20 19 18 17 17 17 16 15 15 14
2 1 1 2 2 1 2 1 2 4 3 3 8 6 2 5 9 11 12 13 13 13 14 15 14 13 13 15 16 17 19 20 21 21 21 20 20 20 21 23 23 22 25 27 29 31 32 32 33 34 36 36 33 31 29 24 22 23 21 21 29 36 33 27 26 28 28 27 28 28 27 25 24 23 22 20 19 19 18 17 17 16 16 15 15 14
1 0 2 2 2 2 2 1 1 5 6 7 9 7 7 9 10 9 11 13 12 12 13 13 14 16 16 17 19 20 21 21 21 21 21 21 20 20 20 22 23 23 25 26 28 31 32 32 33 35 37 37 33 31 28 23 21 23 22 25 33 33 27 26 27 27 28 28 28 27 26 25 24 22 21 20 19 18 18 17 16 16 16 15 14 14
1 1 1 2 2 1 3 6 6 6 8 7 5 8 12 14 11 10 11 12 12 12 12 12 16 19 19 20 21 20 19 20 21 21 21 21 20 19 20 23 24 24 27 28 29 31 32 34 35 35 36 37 34 31 27 22 20 22 25 31 34 29 26 26 26 26 28 29 28 27 25 24 23 22 21 20 19 19 19 18 16 16 16 15 14 14
1 1 1 1 3 5 5 6 7 8 10 11 10 10 11 12 11 12 13 13 13 13 13 14 16 19 19 19 19 18 18 20 21 21 21 20 19 20 21 22 24 28 30 28 28 32 35 36 37 35 35 37 36 30 25 22 20 22 28 34 33 28 25 25 25 27 28 28 28 26 25 24 23 22 21 19 19 19 19 18 17 17 16 15 14 14
3 1 1 2 4 5 5 6 9 10 13 15 14 12 11 12 13 13 12 13 15 16 16 16 17 18 19 19 18 18 19 21 21 20 19 18 19 21 19 19 24 29 29 27 30 36 38 36 35 34 35 37 35 29 25 24 23 24 29 33 32 28 24 24 25 27 28 28 27 26 26 26 24 23 21 20 19 19 18 18 17 17 16 16 15 14
3 2 3 5 5 6 8 11 13 14 12 10 10 11 12 15 16 15 14 14 15 16 18 19 18 17 16 17 18 19 19 19 20 20 19 17 18 18 17 20 27 28 27 29 35 40 39 35 34 35 36 34 30 27 26 26 27 30 31 32 31 27 23 23 26 28 29 28 27 27 27 26 25 23 22 21 21 20 20 19 19 20 20 18 17 16
3 3 5 7 6 6 8 11 15 16 12 7 8 11 13 15 17 17 16 15 16 17 18 20 21 19 17 18 18 18 20 20 20 20 20 18 17 17 19 24 28 27 27 32 38 40 37 35 37 40 37 30 26 27 28 27 31 34 33 33 31 25 22 24 26 27 27 27 27 27 26 26 25 23 22 22 21 21 21 20 20 21 22 19 17 16
4 6 6 7 7 7 9 11 13 14 12 11 14 17 17 16 17 17 16 17 18 18 18 19 21 21 22 22 21 19 19 21 21 21 21 19 17 20 25 27 27 28 32 36 38 38 37 39 42 41 33 28 29 29 27 29 34 36 34 33 31 24 23 25 25 25 25 26 27 28 27 26 25 23 22 21 21 19 19 19 19 19 19 17 15 14
4 6 7 7 7 9 12 13 11 10 11 14 17 18 16 16 16 17 18 19 19 19 19 18 19 20 20 22 25 24 20 20 25 26 22 19 23 28 29 29 30 31 34 36 36 36 39 42 42 39 35 34 32 27 27 33 36 35 35 35 31 25 24 24 23 23 25 27 28 29 28 27 25 24 22 21 20 19 18 18 17 17 17 16 14 13
Wind_Direction
66 62 62 172 209 228 231 185 122 125 143 140 146 186 229 253 272 263 265 272 177 268 262 243 267 279 280 279 266 219 193 219 236 242 247 245 243 241 241 246 245 243 251 255 252 249 243 234 235 240 241 241 241 244 247 249 255 263 268 272 279 287 291 296 303 307 311 313 313 314 312 309 311 314 316 309 293 298 303 298 295 295 297 302 310 316
61 79 168 222 208 199 197 150 99 80 95 103 152 210 260 233 253 271 268 287 352 356 269 284 301 286 283 286 277 182 181 225 227 231 242 242 244 245 243 248 248 250 258 259 251 247 240 232 232 236 237 236 237 242 245 249 255 261 264 268 277 284 286 291 298 300 305 309 309 305 303 306 308 308 310 301 284 284 290 287 286 290 292 296 305 310
39 110 227 224 167 115 82 106 108 103 112 98 147 182 288 258 270 292 302 333 7 303 288 344 319 287 286 289 279 196 200 235 224 226 242 243 247 248 243 248 253 258 259 252 247 243 236 229 229 233 234 235 239 244 247 249 253 257 259 266 274 280 282 286 291 294 300 305 305 298 297 303 303 302 305 297 282 275 279 280 280 284 288 292 299 306
14 257 232 179 129 113 85 78 89 62 74 161 255 311 284 288 325 292 309 350 307 259 281 312 296 281 291 302 296 247 226 262 266 245 250 243 244 249 249 252 251 252 255 252 248 241 233 229 228 229 231 234 237 241 244 245 249 254 257 264 271 276 278 281 284 289 294 298 298 294 294 299 298 296 299 296 286 275 273 275 277 280 284 288 294 299
5 257 151 102 97 132 150 33 73 59 348 276 217 200 232 259 236 245 296 327 310 289 275 305 301 283 307 329 306 315 300 282 277 267 266 248 242 253 259 257 248 245 251 252 251 241 230 229 229 229 231 233 235 238 242 245 249 253 258 263 269 272 273 275 279 283 286 288 289 288 290 294 293 290 290 288 287 284 280 281 283 286 287 289 289 288
189 242 141 102 61 85 127 333 152 127 347 312 233 196 196 228 262 269 312 337 343 350 2 1 342 297 317 319 283 322 344 301 265 251 265 259 247 246 251 254 250 246 248 247 250 248 234 230 231 231 231 231 233 238 243 248 251 253 257 261 264 266 268 271 274 277 278 278 281 280 281 285 282 280 280 278 281 285 287 289 292 294 293 287 279 279
182 41 77 131 102 69 61 307 223 138 56 328 258 186 179 222 298 289 308 352 353 298 307 46 54 273 312 313 288 325 322 297 284 255 262 264 255 242 241 250 252 249 248 245 247 248 240 234 231 230 231 229 232 240 245 248 250 251 255 257 259 262 264 268 270 271 271 271 273 272 273 277 274 272 274 276 280 283 286 287 287 290 289 277 275 282
162 91 58 85 85 64 12 310 214 141 86 289 218 144 214 301 293 278 219 177 239 283 326 17 108 232 296 281 278 324 309 298 300 281 268 262 256 249 245 249 249 248 246 244 245 244 240 236 231 231 232 232 235 242 245 245 248 251 253 255 256 258 261 264 266 266 266 267 269 268 269 271 270 269 273 277 279 278 278 279 279 284 285 275 276 284
138 176 210 148 88 4 256 221 182 147 120 262 203 165 295 292 251 176 137 174 274 348 324 325 44 163 276 273 289 332 311 301 298 287 279 272 263 257 254 253 251 251 247 243 243 243 241 237 235 236 237 237 240 243 244 245 250 252 252 252 252 253 257 261 262 262 264 264 265 265 264 266 268 269 272 273 272 269 271 274 274 279 282 275 276 284
77 241 208 156 151 232 237 217 167 158 226 278 265 286 25 66 84 93 110 142 40 8 261 276 358 23 275 284 309 339 311 284 281 281 277 275 274 264 260 259 256 257 253 244 242 245 245 243 242 242 241 242 243 243 245 247 248 248 247 247 248 250 254 258 259 259 260 261 260 259 259 262 266 268 269 269 268 270 271 269 268 272 273 269 274 280
336 293 205 134 177 208 209 214 168 180 251 326 355 347 35 51 53 68 73 100 69 325 256 256 297 74 301 286 270 259 268 254 267 291 289 283 285 274 262 260 258 259 257 251 247 248 250 250 249 246 243 243 243 243 243 243 243 243 244 244 245 249 253 255 256 255 256 258 257 256 257 260 263 265 266 265 266 268 264 259 262 267 265 263 268 273
344 356 256 288 257 144 84 359 173 195 313 15 28 1 11 3 25 34 356 44 71 281 259 259 276 126 225 269 250 247 262 241 234 268 281 283 287 283 274 266 259 257 259 257 253 251 252 252 249 243 241 242 240 239 238 238 239 240 241 241 243 247 250 251 253 252 253 255 255 256 257 258 261 261 260 260 263 264 258 254 260 263 261 261 263 264
314 257 287 324 301 133 93 344 340 360 17 33 47 40 25 353 6 9 334 8 233 249 218 242 330 205 227 253 258 267 274 260 233 234 255 268 275 279 279 277 274 269 264 260 256 254 251 247 244 239 238 239 236 235 236 235 236 237 238 239 241 245 248 249 250 249 250 252 254 255 256 257 259 258 258 259 261 261 257 254 255 254 253 254 255 258
330 302 323 359 294 125 119 124 317 322 7 22 61 81 75 50 17 321 295 330 291 269 247 306 335 283 272 267 241 246 262 260 249 242 246 256 263 270 278 284 287 280 268 260 256 255 250 245 243 240 238 237 236 235 235 234 235 235 236 237 239 244 247 246 247 247 248 251 254 256 256 257 257 256 255 256 258 259 257 255 252 247 248 250 253 260
339 299 281 159 259 351 105 170 183 150 53 33 156 127 118 138 140 258 250 255 287 292 298 308 260 205 263 282 229 229 261 269 265 260 257 259 260 266 281 286 283 277 271 263 256 255 252 250 247 244 242 239 238 237 235 234 234 233 234 236 237 241 244 243 244 245 247 250 254 256 256 256 256 255 255 256 257 257 257 255 251 246 247 251 256 262
192 266 266 300 293 73 58 247 119 99 67 337 156 105 86 176 149 159 194 189 234 312 299 275 237 211 234 278 279 290 300 288 276 269 269 270 270 276 283 280 277 275 273 265 257 256 255 254 251 247 245 243 241 239 236 235 233 232 234 236 237 241 242 242 242 244 247 251 254 255 255 255 255 253 252 253 253 251 252 251 248 247 250 254 259 261
343 279 289 337 352 72 75 251 65 59 74 72 115 178 226 170 121 113 209 335 67 6 284 251 256 287 311 292 300 342 331 303 298 289 279 274 281 291 281 278 280 279 277 272 263 259 259 258 254 249 247 244 242 239 237 236 234 234 235 235 236 239 240 240 241 244 247 249 251 253 255 254 252 251 251 251 250 247 246 247 248 251 254 257 257 256
155 280 298 26 44 348 267 167 46 31 122 106 161 219 202 103 89 99 94 351 44 232 272 272 263 290 341 294 313 343 319 296 293 291 292 289 290 289 279 280 282 280 281 279 271 266 264 263 258 254 250 247 244 241 240 239 237 236 236 235 235 236 237 239 240 242 245 247 249 251 252 251 249 250 252 252 252 250 249 250 252 254 255 255 254 256
124 286 303 25 204 307 357 79 10 359 62 108 190 186 93 128 234 42 95 324 343 283 281 294 289 267 204 228 286 304 291 287 285 286 293 293 290 290 291 291 289 289 289 285 280 274 268 264 261 258 254 251 248 245 243 241 238 235 235 235 235 236 238 240 240 242 244 245 247 249 249 248 248 250 252 251 251 251 250 252 253 254 253 254 257 261
104 113 287 298 243 307 358 73 244 322 43 42 15 2 31 144 177 186 137 169 206 261 281 312 324 275 225 211 212 256 276 282 284 288 289 288 292 297 300 302 301 300 297 292 288 282 275 271 267 264 260 257 253 249 246 241 236 234 233 233 233 235 236 236 237 239 240 242 244 246 247 247 248 250 251 251 251 249 249 252 253 253 253 255 260 263
74 129 252 302 326 296 290 213 200 179 142 103 92 288 320 91 129 254 259 142 139 179 222 293 304 267 244 198 200 252 275 276 280 290 291 292 299 302 302 304 305 305 303 300 297 292 286 281 278 273 268 263 258 253 247 241 236 233 231 231 231 232 232 232 234 236 238 239 240 243 245 245 246 248 251 252 250 249 251 252 252 252 254 258 261 261
119 156 219 294 306 254 241 243 205 180 168 159 176 199 184 136 116 101 291 280 114 167 188 171 281 274 257 166 210 251 270 279 288 297 298 300 301 302 303 302 302 304 304 302 300 298 296 291 287 282 275 267 259 253 248 242 237 233 231 230 230 229 230 231 232 233 236 238 238 240 242 243 244 247 251 251 249 250 252 252 252 254 256 259 260 260
146 113 167 267 266 247 254 277 248 199 154 135 176 188 148 133 128 140 232 254 159 210 186 119 261 271 263 159 231 259 274 287 295 296 297 300 300 302 306 308 309 306 302 301 299 298 297 294 292 288 280 271 260 254 249 243 238 235 233 231 228 227 229 231 231 232 234 235 237 240 240 241 243 246 248 249 250 251 252 252 253 254 256 259 260 260
119 90 25 276 288 315 317 323 314 321 105 124 243 153 141 161 136 148 183 189 190 217 177 98 259 268 287 289 257 269 285 291 294 294 298 307 313 315 317 318 319 315 309 308 305 303 301 297 293 288 281 273 265 258 252 245 240 237 235 232 229 228 229 230 230 230 231 233 236 239 239 240 241 244 247 249 250 251 252 254 255 255 257 259 259 258
241 164 69 322 323 333 344 352 335 329 105 217 248 186 158 120 96 114 152 101 277 224 169 167 257 262 280 317 305 305 309 305 301 302 310 316 318 320 322 321 320 318 317 316 315 315 314 307 298 288 282 277 270 264 256 249 244 239 236 234 230 229 229 229 229 228 229 231 234 236 238 240 240 242 246 248 250 252 254 255 256 257 257 256 256 255
231 193 146 192 288 296 304 303 303 301 267 242 234 219 208 143 132 162 149 114 253 230 158 178 259 274 289 307 308 307 308 308 307 312 317 318 318 318 318 318 318 320 321 321 321 323 322 318 310 298 290 283 276 270 263 255 249 242 239 237 233 229 228 227 226 226 227 229 231 233 236 239 240 242 246 248 250 252 255 255 256 256 255 254 253 251
99 222 210 197 216 237 258 262 238 73 298 274 264 236 210 190 164 128 108 183 203 200 195 222 256 283 292 295 300 304 309 311 312 316 320 323 324 320 316 318 320 321 321 322 325 326 325 324 320 313 305 295 285 277 269 262 255 247 242 238 234 229 227 226 223 222 225 227 228 231 234 237 240 243 246 248 250 251 253 253 252 253 253 251 249 248
91 296 246 207 231 247 263 273 274 69 267 264 267 252 214 200 164 152 209 224 151 108 267 242 240 273 286 292 300 307 312 314 314 315 319 323 322 319 320 322 321 321 323 327 328 327 326 325 322 320 316 310 301 289 278 270 262 255 247 241 235 228 225 223 220 219 222 223 226 229 233 237 240 244 246 246 247 248 248 246 244 249 252 250 249 252
123 261 249 198 257 262 262 272 269 251 256 258 261 256 233 197 177 196 229 226 148 208 263 266 265 272 281 291 297 303 306 308 308 309 313 318 318 319 322 322 320 322 327 330 329 328 327 325 324 324 322 320 316 305 293 281 269 261 251 242 234 228 224 220 218 218 219 220 224 228 233 236 239 243 244 242 242 241 239 238 240 248 251 251 252 254
148 245 242 169 286 281 267 268 263 239 258 274 258 248 234 209 201 214 238 239 207 236 260 273 279 278 279 282 287 294 297 296 298 305 313 318 319 321 321 318 319 324 328 329 327 326 325 324 324 323 323 323 322 317 309 296 279 265 252 241 231 225 223 219 216 216 216 219 223 228 231 234 237 240 239 238 238 235 233 236 242 248 252 252 252 253
184 263 247 105 310 294 294 332 314 213 233 273 281 272 244 219 220 226 245 254 244 250 260 269 278 280 275 271 275 280 287 299 311 317 320 321 320 320 317 316 319 326 328 327 324 324 324 324 324 323 323 324 324 322 318 309 295 275 255 243 231 223 220 217 215 215 216 219 223 227 230 232 234 236 235 237 238 235 235 239 244 248 251 251 253 256
171 264 3 57 340 288 318 9 321 280 252 265 288 289 251 191 207 221 227 221 214 244 271 281 284 285 289 295 295 294 304 316 319 319 319 317 316 315 313 315 322 327 326 324 323 325 325 325 325 325 325 326 325 324 322 317 306 284 261 245 230 221 217 215 214 215 217 220 222 225 228 230 231 232 233 235 236 236 238 242 244 246 249 251 256 260
144 145 42 53 317 274 301 335 312 311 341 335 270 266 219 201 237 243 251 240 217 224 277 288 281 293 308 319 319 320 324 325 322 320 318 314 312 310 312 321 326 325 322 321 323 324 324 324 325 324 325 325 324 323 322 320 309 289 271 252 232 220 215 213 214 215 216 219 221 223 226 228 228 230 233 234 234 237 239 240 242 246 250 253 258 261
120 115 131 144 228 275 305 327 328 336 334 262 232 196 196 249 267 236 266 279 256 215 226 262 284 299 308 319 323 321 320 319 317 316 313 307 303 306 318 327 325 322 319 319 321 322 322 322 322 323 324 324 324 324 323 321 312 296 280 256 232 220 214 213 213 214 215 217 220 222 225 226 228 230 232 233 234 236 238 241 244 247 251 255 257 261
125 113 131 155 175 270 315 354 356 316 251 243 248 222 218 240 236 224 254 277 276 265 259 274 290 299 307 317 317 312 310 309 310 309 303 295 293 308 326 324 320 318 317 319 321 322 324 325 325 326 325 325 327 326 324 321 315 300 280 254 231 219 215 214 213 213 215 217 218 221 223 224 226 228 229 231 233 236 239 242 244 246 250 253 257 262
138 135 150 167 184 276 342 28 328 278 280 294 307 279 263 257 276 288 291 281 285 303 312 298 301 309 315 316 311 309 311 307 305 300 283 281 297 338 327 317 316 315 315 317 319 321 324 325 324 324 324 324 325 324 322 320 314 298 276 252 231 221 217 215 213 213 215 216 218 221 222 222 224 226 228 230 232 235 239 240 242 245 248 252 258 263
134 136 167 252 216 181 201 256 272 308 331 351 12 328 320 322 314 313 303 291 296 304 294 301 315 319 317 316 313 315 315 310 309 305 268 261 303 327 313 306 306 306 307 311 316 319 322 322 321 321 321 321 321 322 321 319 312 296 273 249 231 224 219 214 214 216 216 217 220 221 220 220 221 224 227 229 231 234 237 239 241 244 247 252 258 260
101 140 172 205 251 105 97 300 319 349 329 267 262 304 302 266 221 157 249 292 291 266 273 317 323 321 319 320 319 320 323 318 313 314 310 307 315 316 311 307 309 311 314 319 323 324 324 323 323 322 321 319 320 322 323 320 312 293 270 251 235 227 219 215 218 219 218 220 223 222 221 219 220 223 226 229 232 234 236 238 241 244 248 252 255 258
42 36 112 123 327 63 107 241 275 273 256 250 273 302 303 258 165 117 351 293 269 276 327 331 323 320 320 318 318 324 328 318 308 311 322 322 320 320 319 318 321 324 326 328 328 327 324 323 323 322 320 319 318 320 324 322 310 289 270 256 244 230 220 221 226 224 222 224 226 223 222 221 221 223 226 230 233 234 235 237 240 244 248 251 254 260
29 11 60 113 254 185 145 204 238 240 257 278 295 303 301 164 129 25 329 307 304 321 331 329 320 317 317 315 318 323 316 307 304 308 315 317 316 317 319 321 325 326 326 326 325 323 322 322 322 320 318 317 316 319 323 321 309 288 272 264 251 233 227 232 234 229 227 229 227 223 222 223 223 224 227 231 233 234 236 238 241 244 246 250 257 263
36 9 60 148 199 182 174 225 272 266 261 277 290 291 288 139 70 347 319 311 321 324 324 324 320 317 317 316 317 312 301 298 298 300 308 312 312 314 318 320 320 319 319 319 318 319 320 320 318 316 314 313 314 316 320 318 305 288 278 269 254 242 243 244 239 230 228 228 224 221 222 223 224 226 229 231 232 234 238 240 241 243 245 250 256 257
80 41 45 115 160 162 171 196 294 287 249 255 293 282 286 352 329 314 304 307 316 316 316 320 319 316 318 316 310 305 303 303 303 306 310 312 312 314 316 316 314 313 314 315 317 319 320 318 316 314 313 314 314 314 317 315 300 289 282 269 258 259 258 252 239 229 227 224 220 220 221 222 224 226 227 228 229 232 236 238 240 245 248 250 251 253
181 191 306 230 189 59 24 43 354 296 258 354 347 331 1 347 314 302 306 311 314 315 317 317 315 315 317 313 309 309 309 310 311 312 312 312 314 314 313 311 310 309 312 315 317 318 319 317 315 313 313 314 314 313 316 312 299 293 285 270 272 274 266 252 240 232 226 221 219 220 220 220 223 224 223 223 225 229 233 236 240 246 249 248 249 253
178 112 338 268 203 72 28 254 282 294 297 339 349 324 307 309 303 303 313 314 317 322 321 316 315 318 319 317 315 314 312 312 312 311 311 312 312 311 310 309 307 307 311 314 315 317 319 317 314 312 312 312 312 313 314 311 301 295 288 284 287 283 266 251 243 231 222 220 219 217 218 220 221 221 220 220 223 226 230 233 237 244 246 245 246 249
297 246 207 228 230 215 235 246 262 291 303 314 318 302 303 309 314 320 318 313 316 321 320 318 318 319 320 319 316 313 311 311 311 311 311 310 309 309 309 307 307 309 312 313 315 318 319 317 314 310 308 309 311 312 313 313 303 292 294 300 299 285 264 251 240 225 220 219 216 214 217 218 218 219 218 219 221 225 227 230 234 238 239 240 241 241
302 264 171 217 280 269 256 265 284 304 310 310 311 308 308 314 323 326 322 317 317 319 318 318 316 314 315 314 310 309 309 309 309 309 308 307 307 308 307 308 310 311 311 314 318 321 321 319 315 311 308 309 311 312 315 318 310 297 301 308 305 287 266 249 232 222 220 217 213 213 213 211 212 214 215 218 223 227 229 231 231 232 233 235 234 233
306 324 8 343 316 307 303 300 308 315 313 313 316 317 319 323 323 323 322 318 315 315 314 312 311 310 311 310 308 308 308 308 308 308 308 308 308 308 310 313 312 311 312 317 322 323 322 319 315 312 309 308 310 314 318 321 319 313 310 311 306 290 267 245 229 222 218 213 210 210 209 208 209 208 211 216 221 225 231 231 229 228 227 226 226 227
311 1 360 336 318 295 284 292 306 311 306 307 318 322 326 326 321 318 317 310 308 309 309 309 311 311 310 310 310 309 309 309 310 309 309 309 309 308 312 312 311 312 316 321 324 323 320 317 314 311 308 307 311 317 320 322 325 324 320 316 308 291 264 242 231 224 220 214 209 208 209 209 208 206 209 214 217 223 229 228 224 224 224 224 225 226
293 360 344 321 305 281 281 305 322 321 312 312 328 325 321 318 315 313 314 312 311 313 312 314 316 314 312 313 313 312 313 313 311 310 309 308 307 307 310 312 315 318 321 322 322 319 315 315 314 311 308 310 317 320 321 324 327 326 324 320 312 292 261 242 234 226 220 214 209 208 209 208 208 208 209 211 217 225 230 229 227 226 227 229 229 229
351 356 338 326 325 317 315 325 331 325 315 319 327 324 318 315 313 313 316 318 318 318 318 318 318 318 318 318 317 317 316 315 314 313 310 308 310 314 318 321 323 323 321 320 320 318 317 320 319 316 316 320 322 321 324 328 328 327 326 323 314 294 263 246 235 225 218 212 208 207 206 204 206 208 209 211 215 221 227 231 231 231 235 235 230 226
3 347 332 330 321 305 306 318 325 318 307 312 319 319 317 317 317 317 320 322 320 320 321 321 320 322 321 320 321 321 317 314 316 316 314 318 325 326 327 328 325 322 322 323 323 323 325 326 326 325 323 322 321 325 331 331 329 329 329 326 318 298 270 250 234 223 217 211 207 206 205 203 205 207 208 212 214 215 221 225 226 229 234 235 229 226